User: anonymous   Login
Location: Poprad
(49.0500°N, 20.3000°E)
Time: 02:27:52
(UTC+02:00)
Language:

STARS - Orbit

View from above orbital plane
View from above orbital plane
View from above satellite
View from above satellite

Ground track
Ground track

The orbit data is extracted from the following two-line orbital elements,

1 33498U 09002G   24109.34395873  .00008143  00000-0  96602-3 0  9998
2 33498  98.1215  22.4142 0008522 237.6162 122.4227 14.84740306820797
Epoch (UTC): 18 April 2024 08:15:18
Eccentricity: 0.0008522
inclination: 98.1215°
perigee height: 608 km
apogee height: 620 km
right ascension of ascending node: 22.4142°
argument of perigee: 237.6162°
revolutions per day: 14.84740306
mean anomaly at epoch: 122.4227°
orbit number at epoch: 82079

The dashed part of the orbit path shows where the satellite is in the earth's shadow,  

DLR